Showing default

FLOCK 4Q 7, 58318

Orbit data source: Space-Track

FLOCK 4Q 7, 58318 is a payload satellite owned by Planet (US) in SSO that was launched on Sat, 11 Nov 2023 UTC via an FALCON 9 launch vehicle from the Air Force Western Test Range (AFWTR). Payload-class satellites include a variety of spacecraft equipped with specific instruments for various scientific and technological missions. These include communications satellites like Starlink; space stations such as the ISS; scientific satellites like the Hubble; Earth observation satellites from companies like Planet Labs, Umbra, and HawkEye 360; GPS; miniature CubeSats for education and research; and military/defense satellites.

Loading next visibility...
Identifier
58318, 2023-174BQ
Orbit
SSO
Country
Flag of USUS
Related business
Manufacturer
Planet
Mission
Operational Commercial Imaging
Bus & Motor
CUBESAT 3U, Unknown motor
Mass
5.7 kg wet, 5.7 kg dry
Launch date (UTC)
2023-11-11 (3 years ago)
Launch vehicle
FALCON 9
Launch site
Air Force Western Test Range (AFWTR)
Object type
Payload
Rocket body
Debris
Shape & HBR
Box + 2 Pan, 1.0 m
Radar Cross Section
0.072 m², Medium (>0.1 m² and < 1m²)

Expand to show TLE details & history
Last TLE update: 2 days ago

TLE from 2 days ago
0 FLOCK 4Q 7
1 58318U 23174BQ  26234.82469336  .00029876  00000-0  37779-3 0  9998
2 58318  97.3889 328.7755 0004582 228.8267 131.2595 15.59473676156126
Epoch: 2026-08-22T19:47Z
TLE epoch observation values (Epoch: 2026-08-22T19:47:33.506Z)
Latitude
0.00002°
Longitude
60.75634°
Altitude
394.37 km
Speed
7.672 km/s
True Right ascension
21h 55m 06s
True Declination
0° 00' 00"
Sunlit
Object was in full shadow at epoch
Visualization orbit readout
Latitude
Unknown
Longitude
Unknown
Altitude
Unknown
Speed
Unknown
Apparent Right ascension
Unknown
Apparent Declination
Unknown
Sunlit
N/A
Visualization observer readout
Local Sidereal Time
19:33:23
Azimuth
Unknown
Elevation
Unknown
Doppler factor
Unknown
Orbital elements
Apogee altitude
389.191 km
Perigee altitude
382.993 km
Semi-major axis
6,764.229 km
Eccentricity
0.00046
Inclination
97.3889°
RAAN
328.7755°
Arg. of periapsis
228.8267°
True anomaly
131.29896°
Mean anomaly
131.2595°
Eccentric anomaly
131.27923°
Mean motion
3.90136 °/min
Orbital period
92.28 mins
BSTAR
0.00037779
Loading maneuver chart data...
Computing Atmospheric mass density...
Loading historical data...
Loading historical data...
Loading historical data...
Loading historical data...
Loading historical data...
Loading historical data...
Loading historical data...

Documentation

Showing up to 5 results
|